Location: Burera
(21.3780°N, 81.9534°E)
Time: 12:07:45
(UTC+00:00)

Daily predictions for brighter satellites

Satellite Brightness Start Highest point End
(mag) Time Altitude Azimuth Time Altitude Azimuth Time Altitude Azimuth
Cosmos 1302 Rocket 4.0 13:17:16 10° NNW 13:22:29 85° ENE 13:27:43 10° SSE
Cosmos 1500 Rocket 3.6 13:20:42 10° S 13:24:53 54° E 13:29:05 10° NNE
Cosmos 292 Rocket 3.8 13:20:35 10° NNW 13:25:20 88° ENE 13:30:06 10° SSE
Yuri Rocket 3.1 13:21:15 10° WSW 13:26:25 84° SSE 13:30:39 10° ENE
CENTAUR R/B 3.6 13:24:20 10° SE 13:27:24 15° ESE 13:30:40 10° ENE
CZ-2D R/B 3.7 13:25:11 10° S 13:28:56 64° W 13:32:42 10° NNW
CSL-04 Rocket 3.8 13:24:41 10° SSE 13:29:48 52° ENE 13:34:54 10° N
Iridium 2 3.6 13:26:47 10° N 13:30:30 73° E 13:34:13 10° S
Delta 202 4.4 13:23:31 10° W 13:32:12 71° S 13:38:10 10° E
Cosmos 1441 Rocket 4.0 13:32:05 10° SSE 13:35:24 29° E 13:38:42 10° NNE
ARGOS 3.9 13:34:07 10° SE 13:38:50 32° ENE 13:43:31 10° NNE
HJ-1C 3.6 13:36:21 10° SSE 13:39:35 48° ENE 13:42:49 10° N
Okean-O 4.0 13:36:00 10° S 13:40:10 41° W 13:44:21 10° NNW
Skynet4D Del rocket 4.3 13:35:13 10° WNW 13:40:24 48° N 13:45:38 10° ENE
SJ-11-01 4.5 13:36:35 10° SSE 13:41:09 52° ENE 13:45:45 10° N
Cosmos 1328 Rocket 3.9 13:38:35 10° N 13:42:59 73° W 13:47:25 10° S
COSMOS 2406 4.3 13:37:51 10° SW 13:43:25 50° WNW 13:48:58 10° N
Cosmos 2082 Rocket 2.3 13:38:21 10° S 13:43:52 53° ESE 13:49:22 10° NNE
CZ-4 R/B 2.6 13:40:22 10° S 13:44:03 42° W 13:47:48 10° NNW
Sakura Rocket 4.4 13:36:28 10° WNW 13:44:38 65° SSW 13:49:55 13° SE
GPS 2-15 Rocket1 4.5 13:41:57 10° SSW 13:45:33 22° SSE 13:48:11 14° ESE
Ariane Rocket 4.1 13:41:42 10° SE 13:45:36 24° ENE 13:49:35 10° NNE
Cosmos 1782 3.1 13:42:59 10° N 13:46:52 47° E 13:50:44 10° SSE
Cosmos 1805 Rocket 3.8 13:44:37 10° SSE 13:48:50 46° E 13:53:04 10° NNE
Cosmos 407 Rocket 3.5 13:44:23 10° S 13:49:42 80° ESE 13:55:00 10° NNE
SL-08 R/B 4.4 13:43:50 10° S 13:50:03 70° E 13:56:10 10° N
Cosmos 1190 Rocket 4.0 13:46:29 10° S 13:51:39 64° ESE 13:56:51 10° NNE
CZ-2C R/B 2.8 13:48:41 10° NNE 13:53:42 48° E 13:58:49 10° S
CZ-3B R/B 3.4 13:51:06 10° W 13:54:03 59° S 13:59:38 17° ESE
Cosmos 1992 Rocket 4.0 13:50:06 10° N 13:55:15 61° ENE 14:00:22 10° SSE
Cosmos 1339 Rocket 4.5 13:53:35 10° N 13:59:53 90° E 14:06:04 10° S
Cosmos 1140 Rocket 3.4 13:56:49 10° S 14:02:02 79° ESE 14:07:17 10° NNE
deb Kosmos-1763 3.9 13:59:26 10° S 14:02:58 62° ESE 14:06:33 10° NNE
Cosmos 1023 Rocket 4.5 13:59:12 10° SSW 14:04:27 87° ESE 14:09:44 10° NNE
FREGAT/IRIS 4.2 14:05:47 18° NE 14:05:47 18° NE 14:07:00 10° NNE
Cosmos 1633 Rocket 4.1 14:06:01 24° ESE 14:06:52 25° E 14:10:29 10° NE
NOSS 3-2 (A) 3.1 14:01:37 10° SSW 14:06:59 89° WNW 14:12:47 10° NNE
Aureole 1 Rocket 4.1 14:01:17 10° S 14:07:04 61° E 14:14:30 10° NNE
NOSS 3-2 (C) 3.1 14:10:55 10° S 14:16:10 56° ESE 14:21:47 10° NE
ATLAS 5 CENTAUR R/B 2.8 14:12:14 10° NNW 14:18:27 52° ENE 14:22:13 27° SE
Meteor 2-6 Rocket 4.2 14:16:31 10° N 14:22:09 68° E 14:26:34 18° SSE
Cosmos 2084 Rocket 3.5 14:19:23 10° S 14:23:20 48° ESE 14:27:21 10° NE
USA 267 3.3 14:18:37 10° NE 14:25:10 84° NW 14:31:42 10° SW
FUSE 4.3 14:20:44 10° WNW 14:26:03 61° N 14:28:42 29° ENE
Cosmos 1980 Rocket 4.1 14:24:02 10° NE 14:25:55 13° ENE 14:25:55 13° ENE
Cosmos 1934 Rocket 4.2 14:23:57 14° SSE 14:29:09 51° E 14:35:17 10° NNE
Cosmos 1656 3.6 14:25:20 10° N 14:30:50 66° ENE 14:33:07 36° SE
CZ-2C R/B 4.4 14:26:34 10° SSW 14:31:01 35° W 14:35:23 10° NW
H-2A R/B 3.0 14:27:50 10° S 14:32:48 45° W 14:37:40 10° NNW
IRS-1A Rocket 4.2 14:34:37 23° SSE 14:38:13 90° SSE 14:43:56 10° NNW
OBJECT-B 3.1 14:40:31 16° NNE 14:40:31 16° NNE 14:41:24 10° NNE
Cosmos 1697 Rocket 3.2 14:34:57 10° N 14:40:07 38° ENE 14:40:23 38° ENE
CZ-2C R/B 3.6 14:36:36 10° N 14:41:07 85° WNW 14:44:27 17° SSW
Sich 1 4.0 14:36:57 10° SSW 14:41:12 48° W 14:45:29 10° N
USA 186 3.9 14:42:42 18° NW 14:42:42 18° NW 14:43:31 10° NNW
Cosmos 1727 Rocket 4.3 14:35:47 10° N 14:42:05 69° W 14:48:19 10° S
SJ-6B 2.8 14:43:07 60° S 14:43:48 81° WSW 14:47:50 10° NNW
Cosmos 2228 Rocket 4.1 14:41:24 10° NNW 14:45:35 44° W 14:48:36 17° SSW
SL-8 R/B 4.2 14:41:46 10° NNW 14:46:23 45° NE 14:46:32 45° NE
Resurs 01 Rocket 3.4 14:55:04 21° NNE 14:55:04 21° NNE 14:56:55 10° NNE
GPS 2-17 Rocket1 4.0 14:50:37 10° W 14:54:08 34° SW 14:54:08 34° SW
VEP-3 3.5 14:51:46 10° W 14:57:28 69° SSW 15:02:03 39° ESE
SPOT 3 Rocket 3.6 14:59:50 60° NE 14:59:50 60° NE 15:04:32 10° N
Meteor 1-27 Rocket 3.7 14:54:22 10° N 15:00:19 73° E 15:00:50 68° SE
Cosmos 972 4.2 14:56:44 10° NNW 15:01:26 83° N 15:01:26 83° N
BREEZE-M DEB (TANK) 4.2 15:05:02 10° NW 15:06:46 22° WNW 15:06:46 22° WNW
ATLAS 2A CENTAUR R/B 4.0 14:20:52 10° SW 15:09:01 65° SSE 15:12:52 46° ESE
Cosmos 1812 4.2 15:06:19 10° NNW 15:09:22 36° WNW 15:09:22 36° WNW
CENTAUR R/B 3.4 15:12:13 10° SW 15:17:19 42° WNW 15:23:07 10° N
CZ-3A R/B 3.6 14:44:47 10° W 15:18:00 88° SSW 15:20:48 56° ESE
Cosmos 1605 Rocket 3.9 15:25:29 79° NW 15:25:29 79° NW 15:31:21 10° N
Cosmos 2123 Rocket 4.1 15:23:25 10° N 15:28:52 70° N 15:28:52 70° N
ATLAS 5 CENTAUR R/B 4.1 15:26:17 10° SW 15:49:35 13° E 15:52:42 10° E
Skynet4D Del rocket 4.4 15:27:58 10° WNW 15:32:06 47° NW 15:32:06 47° NW
ATLAS 5 CENTAUR R/B 4.5 15:58:11 10° WNW 16:02:59 21° WSW 16:03:48 21° WSW
Cosmos 1980 Rocket 4.0 16:05:09 10° NNW 16:07:42 27° NW 16:07:42 27° NW
IDEFIX/ARIANE 42P 4.3 21:17:09 10° NNE 21:19:42 29° NNE 21:19:42 29° NNE
Aurora 2 Rocket 4.3 21:25:15 67° NNW 21:26:06 70° N 21:36:37 10° E
Cosmos 1844 Rocket 3.9 21:29:02 36° NNE 21:29:02 36° NNE 21:32:12 10° NNE
Lacrosse 5 rocket 3.4 21:46:37 26° E 21:46:37 26° E 21:49:28 10° ENE
ATLAS 3B CENTAUR R/B 3.5 21:36:46 24° WNW 21:46:39 79° NNE 21:53:17 10° ESE
Intelsat 5-1 Rocket 4.2 21:57:28 48° SSW 22:00:01 60° SSE 22:22:47 10° ENE
USA 281 3.8 21:57:14 10° NNE 22:03:36 53° ESE 22:06:52 28° S
Cosmos 1953 Rocket 4.3 21:59:18 10° N 22:03:36 49° E 22:03:51 49° E
ATLAS 2AS CENTAUR R/B 4.3 22:09:52 10° S 22:16:38 35° ESE 22:23:38 10° NE
Cosmos 1386 Rocket 4.4 22:11:35 10° N 22:17:37 83° E 22:22:51 14° S
Atlas Centaur 2 3.7 22:16:24 25° NW 22:19:47 40° N 22:27:08 10° ENE
Helios 1B 4.4 22:23:47 80° S 22:24:01 88° W 22:28:20 10° NNW
Meteosat 1 Rocket2 4.0 22:23:05 41° WNW 22:25:05 59° NNW 22:29:56 10° ENE
SeaSat 1 2.3 22:21:19 10° NNE 22:26:12 66° WNW 22:26:43 62° WSW
Cosmos 883 Rocket 4.4 22:24:24 45° SSW 22:26:17 68° W 22:32:30 10° N
Centaur AC-72 3.0 22:25:40 43° WSW 22:27:31 62° S 22:37:45 10° ESE
MSX 4.3 22:24:44 10° N 22:30:02 39° WNW 22:30:11 39° WNW
SWIFT 3.6 22:30:45 28° SSE 22:30:45 28° SSE 22:34:08 10° ESE
Cosmos 494 Rocket 3.9 22:27:03 10° NNW 22:32:15 89° W 22:37:29 10° SSE
DELTA 2 R/B (1) 3.5 22:32:18 50° SW 22:33:50 90° SSW 22:39:28 10° NE
PSLV R/B 3.6 22:32:19 10° N 22:36:34 55° WNW 22:36:42 55° W
Aureole 2 Rocket 4.3 22:38:07 16° SE 22:39:18 21° E 22:41:31 10° NE
Meteor 1-31 Rocket 4.3 22:40:20 10° NNE 22:43:48 33° E 22:47:15 10° SSE
Cosmos 1745 Rocket 4.1 22:37:55 10° NNW 22:43:52 50° W 22:48:07 19° SSW
Cosmos 1484 Rocket 4.0 22:42:28 10° NNE 22:45:59 40° E 22:49:32 10° S
GPS 2-12 Rocket1 3.4 22:47:27 38° SW 22:48:50 53° S 22:53:31 10° E
Hubble Space Telescope 2.3 22:46:50 19° NW 22:48:51 29° N 22:52:30 10° ENE
CZ-2C R/B 2.5 22:45:26 10° N 22:49:55 48° WNW 22:51:34 33° SW
deb Chang Zheng 4 3.5 22:45:37 10° N 22:49:55 66° WNW 22:51:59 30° SSW
DELTA 4 R/B 4.0 22:42:21 23° SW 22:51:16 51° SSE 22:55:50 10° E
TSX-5 3.5 22:52:35 47° WNW 22:52:35 47° WNW 22:55:37 10° N
Cosmos 1812 Rocket 3.5 22:50:24 14° S 22:54:08 86° E 22:58:28 10° N
CZ-4B R/B 2.3 22:57:37 10° SSE 23:00:48 48° ENE 23:03:54 10° N
ADEOS Rocket 4.4 22:55:21 10° SSE 23:02:34 54° ENE 23:10:04 10° N
Delta 142 4.3 23:02:35 26° SW 23:03:02 26° SSW 23:06:35 10° SSE
ADEOS 3.6 22:58:35 10° N 23:03:43 61° WNW 23:08:32 12° SSW
Cosmos 2278 Rocket 2.2 23:01:43 16° SSW 23:06:19 67° WNW 23:11:57 10° N
H-2A R/B 2.9 23:08:45 24° WSW 23:09:13 25° W 23:12:35 10° NW
Cosmos 1400 Rocket 2.7 23:09:27 10° SSW 23:13:15 62° W 23:17:06 10° N
Cosmos 1455 2.4 23:11:25 13° SSW 23:14:43 50° W 23:18:29 10° N
Chandra Rocket (1) 3.0 23:08:42 17° WSW 23:16:52 74° SSE 23:20:38 10° ENE
CZ-4B R/B 3.4 23:14:26 10° NNE 23:18:49 66° ESE 23:23:00 10° S
Cosmos 1825 4.3 23:16:20 10° NNE 23:19:39 30° E 23:22:58 10° SE
ASTEX 1 3.6 23:15:16 10° N 23:20:09 76° E 23:25:04 10° S
ASTRO E2 3.0 23:20:01 16° SW 23:22:57 58° SSE 23:26:50 10° ENE
Cosmos 1709 Rocket 4.3 23:18:04 10° NNW 23:23:45 42° W 23:29:24 10° SSW
Lacrosse 5 rocket 3.1 23:22:17 14° W 23:24:41 21° NW 23:28:08 10° N
ALOS 2.3 23:20:25 10° N 23:25:01 63° WNW 23:29:37 10° SSW
SEDSat Delta rocket 4.1 23:19:58 15° WSW 23:25:36 78° SSE 23:32:25 10° ENE
ERS-2 3.6 23:25:25 15° WSW 23:26:23 17° W 23:28:47 10° WNW
Cosmos 1689 Rocket 3.6 23:24:12 10° SSE 23:26:56 40° ENE 23:29:40 10° N
DELTA 2 R/B(2) 4.1 23:25:37 14° SW 23:28:51 79° SE 23:31:30 10° ENE
Meteor 2-10 Rocket 4.2 23:30:17 10° SW 23:34:49 32° W 23:39:32 10° NNW
ATLAS 2A CENTAUR R/B 2.9 23:38:49 10° WSW 23:39:45 12° SW 23:40:38 10° SSW
COSMOS 2455 4.2 23:34:32 10° S 23:40:07 41° ESE 23:45:42 10° NE
CREW DRAGON DEMO-1 DEB 2.8 23:37:17 10° SW 23:40:19 74° NW 23:43:22 10° NE
SAR-Lupe-4 4.2 23:37:51 10° SSW 23:41:06 33° W 23:44:21 10° NNW
Cosmos 1315 Rocket 2.9 23:37:59 10° S 23:42:05 86° E 23:46:13 10° N
Cosmos-2242 3.1 23:38:02 10° SSW 23:42:17 55° W 23:46:35 10° N
NOSS 3-4 (A) 3.8 23:37:58 10° SW 23:43:29 42° WNW 23:49:07 10° N
NOSS 3-4 (C) 3.8 23:38:05 10° SW 23:43:37 42° WNW 23:49:15 10° N
ATLAS 2A CENTAUR R/B 2.9 23:40:50 10° WSW 23:43:44 28° S 23:51:20 10° SE
USA 81 4.2 23:39:04 10° N 23:44:21 82° E 23:49:37 10° S
Nadezhda 1 Rocket 4.1 23:39:14 10° SSW 23:45:35 70° W 23:51:57 10° N
GPS 2-04 Rocket1 2.5 23:42:03 10° WSW 23:45:37 86° SSE 23:49:21 10° ENE
Cosmos 2058 3.4 23:41:48 10° NNW 23:45:42 38° W 23:49:36 10° SSW
Cosmos 2251 Rocket 4.2 23:42:01 10° N 23:47:20 64° ENE 23:52:38 10° SSE
